TimeCST,TemperatureF,Dew PointF,Humidity,Sea Level PressureIn,VisibilityMPH,Wind Direction,Wind SpeedMPH,Gust SpeedMPH,PrecipitationIn,Events,Conditions,WindDirDegrees,DateUTC
12:15 AM,30.9,29.3,94,29.39,10.0,ESE,5.8,-,N/A,,Clear,120,2012-02-23 06:15:00
12:35 AM,30.9,29.3,94,29.38,10.0,East,3.5,-,N/A,,Clear,100,2012-02-23 06:35:00
12:55 AM,31.8,30.2,94,29.38,10.0,East,6.9,-,N/A,,Scattered Clouds,100,2012-02-23 06:55:00
1:15 AM,31.6,30.0,94,29.38,10.0,East,6.9,-,N/A,,Mostly Cloudy,80,2012-02-23 07:15:00
1:35 AM,31.8,30.9,96,29.38,10.0,East,6.9,-,N/A,,Mostly Cloudy,100,2012-02-23 07:35:00
1:55 AM,32.0,31.1,96,29.38,10.0,ESE,9.2,-,N/A,,Overcast,110,2012-02-23 07:55:00
2:15 AM,32.0,30.0,92,29.38,10.0,East,9.2,-,N/A,,Mostly Cloudy,80,2012-02-23 08:15:00
2:35 AM,32.0,30.0,92,29.39,10.0,East,9.2,-,N/A,,Overcast,90,2012-02-23 08:35:00
2:55 AM,32.0,30.2,93,29.37,10.0,East,11.5,-,N/A,,Overcast,100,2012-02-23 08:55:00
3:15 AM,31.8,29.7,92,29.37,10.0,East,11.5,-,N/A,,Overcast,80,2012-02-23 09:15:00
3:35 AM,31.8,30.2,94,29.37,10.0,East,10.4,-,N/A,,Overcast,100,2012-02-23 09:35:00
3:55 AM,31.6,30.2,94,29.36,10.0,East,9.2,-,N/A,,Overcast,100,2012-02-23 09:55:00
4:15 AM,31.8,30.4,94,29.36,10.0,ESE,10.4,-,N/A,,Overcast,110,2012-02-23 10:15:00
4:35 AM,32.0,30.2,93,29.36,10.0,ESE,10.4,-,N/A,,Overcast,110,2012-02-23 10:35:00
4:55 AM,32.0,30.0,92,29.36,10.0,East,11.5,-,N/A,,Overcast,100,2012-02-23 10:55:00
5:15 AM,32.0,29.8,92,29.36,10.0,ESE,11.5,-,N/A,,Overcast,120,2012-02-23 11:15:00
5:35 AM,32.0,30.0,92,29.36,10.0,ESE,11.5,-,N/A,,Overcast,110,2012-02-23 11:35:00
5:55 AM,31.8,30.2,94,29.37,10.0,East,10.4,-,N/A,,Overcast,100,2012-02-23 11:55:00
6:15 AM,31.8,30.2,94,29.37,10.0,East,8.1,-,N/A,,Overcast,90,2012-02-23 12:15:00
6:35 AM,31.6,30.6,96,29.36,10.0,East,8.1,-,N/A,,Overcast,100,2012-02-23 12:35:00
6:55 AM,32.0,30.4,94,29.36,10.0,East,9.2,-,N/A,,Overcast,80,2012-02-23 12:55:00
7:15 AM,31.5,30.2,95,29.36,10.0,NE,10.4,-,N/A,,Overcast,40,2012-02-23 13:15:00
7:35 AM,31.1,30.2,96,29.37,10.0,NE,11.5,-,0.01,,Overcast,50,2012-02-23 13:35:00
7:55 AM,30.9,30.2,97,29.39,2.5,ENE,15.0,-,0.01,,Overcast,60,2012-02-23 13:55:00
8:15 AM,30.9,30.6,99,29.39,1.5,ENE,12.7,-,N/A,,Overcast,60,2012-02-23 14:15:00
8:35 AM,30.9,30.7,99,29.40,2.5,ENE,15.0,-,0.01,,Overcast,70,2012-02-23 14:35:00
8:55 AM,30.7,30.6,99,29.40,2.5,ENE,16.1,-,0.01,,Overcast,70,2012-02-23 14:55:00
9:15 AM,30.9,30.7,99,29.40,5.0,East,16.1,-,N/A,,Overcast,80,2012-02-23 15:15:00
9:35 AM,30.7,30.6,99,29.40,3.0,East,16.1,-,N/A,,Overcast,80,2012-02-23 15:35:00
9:55 AM,30.9,30.9,100,29.40,2.5,East,16.1,-,N/A,,Overcast,80,2012-02-23 15:55:00
10:15 AM,31.1,31.1,100,29.40,5.0,East,18.4,-,N/A,,Overcast,80,2012-02-23 16:15:00
10:35 AM,31.1,31.1,100,29.42,7.0,East,12.7,-,N/A,,Overcast,80,2012-02-23 16:35:00
10:55 AM,31.5,31.1,99,29.42,2.0,East,15.0,-,N/A,,Overcast,80,2012-02-23 16:55:00
11:15 AM,31.3,31.1,99,29.42,1.5,ENE,13.8,-,N/A,,Overcast,70,2012-02-23 17:15:00
11:35 AM,31.1,31.1,100,29.42,1.5,ENE,15.0,-,0.01,,Overcast,70,2012-02-23 17:35:00
11:55 AM,30.9,30.9,100,29.41,1.0,ENE,16.1,-,0.02,,Overcast,70,2012-02-23 17:55:00
12:15 PM,30.9,30.9,100,29.42,1.2,East,13.8,21.9,N/A,,Overcast,80,2012-02-23 18:15:00
12:35 PM,30.9,30.9,100,29.43,1.5,ENE,13.8,-,0.02,,Overcast,70,2012-02-23 18:35:00
12:55 PM,30.9,30.9,100,29.42,1.0,ENE,15.0,-,0.04,,Overcast,70,2012-02-23 18:55:00
1:15 PM,30.9,30.9,100,29.42,1.2,ENE,11.5,-,0.02,,Overcast,70,2012-02-23 19:15:00
1:35 PM,30.9,30.9,100,29.42,1.0,ENE,13.8,-,0.03,,Overcast,60,2012-02-23 19:35:00
1:55 PM,30.9,30.9,100,29.43,0.5,ENE,13.8,-,0.03,,Overcast,60,2012-02-23 19:55:00
2:15 PM,30.7,30.7,100,29.43,0.8,NE,15.0,-,0.01,,Overcast,40,2012-02-23 20:15:00
2:35 PM,30.6,30.6,100,29.44,0.5,NE,13.8,-,0.02,,Overcast,40,2012-02-23 20:35:00
2:55 PM,30.6,30.6,100,29.46,0.5,NNE,15.0,19.6,0.02,,Overcast,30,2012-02-23 20:55:00
3:15 PM,30.6,30.6,100,29.47,0.2,NNE,13.8,-,0.02,,Overcast,30,2012-02-23 21:15:00
3:35 PM,30.6,30.6,100,29.48,0.2,NNE,13.8,-,0.07,,Overcast,30,2012-02-23 21:35:00
3:55 PM,30.6,30.6,100,29.49,0.2,NNE,15.0,20.7,0.08,,Overcast,30,2012-02-23 21:55:00
4:15 PM,30.2,30.2,100,29.50,0.2,NNE,17.3,20.7,0.01,,Overcast,20,2012-02-23 22:15:00
4:35 PM,30.2,30.2,100,29.51,0.2,NNE,16.1,-,0.06,,Overcast,30,2012-02-23 22:35:00
4:55 PM,29.8,29.8,100,29.52,0.2,NNE,15.0,-,0.08,,Overcast,20,2012-02-23 22:55:00
5:15 PM,29.8,29.8,100,29.53,0.2,NNE,16.1,-,N/A,,Overcast,20,2012-02-23 23:15:00
5:35 PM,29.1,29.1,100,29.55,0.5,North,18.4,-,0.01,,Overcast,10,2012-02-23 23:35:00
5:55 PM,27.7,27.7,100,29.57,0.5,North,19.6,-,0.01,,Overcast,360,2012-02-23 23:55:00
6:15 PM,27.1,27.1,100,29.59,0.5,North,19.6,-,N/A,,Overcast,360,2012-02-24 00:15:00
6:35 PM,26.6,26.6,100,29.61,0.8,North,19.6,-,N/A,,Overcast,360,2012-02-24 00:35:00
6:55 PM,26.6,26.6,100,29.63,1.0,North,18.4,-,N/A,,Overcast,360,2012-02-24 00:55:00
7:15 PM,26.6,26.6,100,29.64,-9999.0,North,17.3,-,N/A,,Overcast,360,2012-02-24 01:15:00
7:35 PM,26.6,26.6,100,29.65,-9999.0,North,18.4,-,0.01,,Overcast,360,2012-02-24 01:35:00
7:55 PM,26.6,26.6,100,29.66,-9999.0,North,17.3,-,0.01,,Overcast,360,2012-02-24 01:55:00
8:15 PM,26.6,26.6,100,29.67,-9999.0,North,17.3,-,N/A,,Overcast,360,2012-02-24 02:15:00
8:35 PM,26.6,26.6,100,29.68,-9999.0,North,17.3,-,N/A,,Overcast,360,2012-02-24 02:35:00
8:55 PM,26.6,26.6,100,29.68,-9999.0,North,17.3,-,N/A,,Overcast,360,2012-02-24 02:55:00
9:15 PM,26.4,26.2,99,29.69,-9999.0,North,16.1,-,N/A,,Unknown,360,2012-02-24 03:15:00
9:35 PM,26.2,26.1,99,29.70,-9999.0,North,15.0,-,N/A,,Unknown,360,2012-02-24 03:35:00
9:55 PM,26.6,26.2,99,29.71,-9999.0,North,12.7,-,N/A,,Overcast,360,2012-02-24 03:55:00
10:15 PM,26.6,26.2,99,29.71,5.0,North,12.7,-,N/A,,Overcast,350,2012-02-24 04:15:00
10:35 PM,26.4,25.9,98,29.72,7.0,North,11.5,-,N/A,,Overcast,350,2012-02-24 04:35:00
10:55 PM,26.2,25.7,98,29.72,3.0,NNW,12.7,-,N/A,,Overcast,340,2012-02-24 04:55:00
11:15 PM,25.7,25.5,99,29.72,2.0,North,13.8,-,N/A,,Overcast,350,2012-02-24 05:15:00
11:35 PM,25.7,25.3,99,29.72,2.0,NNW,10.4,-,N/A,,Overcast,340,2012-02-24 05:35:00
11:55 PM,25.7,25.5,99,29.73,4.0,NW,9.2,-,N/A,,Overcast,320,2012-02-24 05:55:00